contact:dominique.lefevre@mio.osupytheas.fr, maurice.libes@osupytheas.fr, didier.mallarino@osupytheas.fr
Project:EMSO http://www.emso-fr.org/EMSO-France
Depth: 2436.0 m
Title:EMSO Ligure Ouest : Data MII capteur CSTAR
DateTime,Latitude,Longitude,Instrument_Serial,Reference_Counts,Signal_Counts,Corrected_Signal_raw_counts,Calculated_Beam_c_inverse_meters,Internal_thermistor_counts
DateTime,Latitude,Longitude,Instrument_Serial,Reference_Counts,Signal_Counts,Corrected_Signal_raw_counts,Calculated_Beam_c_inverse_meters,Internal_thermistor_counts
2022-01-26T00:00:00,42.805,6.029,CST-1368DR,4951,6251,13488,0.586,551
2022-01-26T00:03:02,42.805,6.029,CST-1368DR,4951,6251,13487,0.586,551
2022-01-26T00:06:04,42.805,6.029,CST-1368DR,4951,6249,13484,0.587,551
2022-01-26T00:09:05,42.805,6.029,CST-1368DR,4951,6251,13487,0.586,551
2022-01-26T00:12:07,42.805,6.029,CST-1368DR,4951,6251,13488,0.586,551
2022-01-26T00:15:08,42.805,6.029,CST-1368DR,4951,6251,13488,0.586,551
2022-01-26T00:18:10,42.805,6.029,CST-1368DR,4951,6250,13486,0.587,551
2022-01-26T00:21:12,42.805,6.029,CST-1368DR,4951,6251,13487,0.586,551
2022-01-26T00:24:13,42.805,6.029,CST-1368DR,4951,6248,13482,0.588,551
2022-01-26T00:27:15,42.805,6.029,CST-1368DR,4951,6251,13488,0.586,551
2022-01-26T00:30:16,42.805,6.029,CST-1368DR,4951,6251,13488,0.586,551
2022-01-26T00:33:18,42.805,6.029,CST-1368DR,4951,6251,13487,0.586,551
2022-01-26T00:36:19,42.805,6.029,CST-1368DR,4951,6250,13486,0.587,551
2022-01-26T00:39:21,42.805,6.029,CST-1368DR,4951,6251,13487,0.586,551
2022-01-26T00:42:23,42.805,6.029,CST-1368DR,4951,6251,13488,0.586,551
2022-01-26T00:45:24,42.805,6.029,CST-1368DR,4950,6251,13491,0.585,551
2022-01-26T00:48:26,42.805,6.029,CST-1368DR,4951,6250,13486,0.587,551
2022-01-26T00:51:27,42.805,6.029,CST-1368DR,4950,6250,13488,0.586,551
2022-01-26T00:54:29,42.805,6.029,CST-1368DR,4951,6251,13488,0.586,551
2022-01-26T00:57:30,42.805,6.029,CST-1368DR,4951,6252,13489,0.586,551
2022-01-26T01:00:32,42.805,6.029,CST-1368DR,4950,6251,13490,0.585,551
2022-01-26T01:03:34,42.805,6.029,CST-1368DR,4951,6251,13487,0.586,551
2022-01-26T01:06:35,42.805,6.029,CST-1368DR,4951,6251,13487,0.586,551
2022-01-26T01:09:37,42.805,6.029,CST-1368DR,4951,6251,13487,0.586,551
2022-01-26T01:12:38,42.805,6.029,CST-1368DR,4951,6251,13487,0.586,550
2022-01-26T01:15:40,42.805,6.029,CST-1368DR,4951,6251,13488,0.586,551
2022-01-26T01:18:42,42.805,6.029,CST-1368DR,4950,6251,13489,0.586,551
2022-01-26T01:21:43,42.805,6.029,CST-1368DR,4951,6250,13486,0.587,551
2022-01-26T01:24:45,42.805,6.029,CST-1368DR,4951,6251,13487,0.586,551
2022-01-26T01:27:46,42.805,6.029,CST-1368DR,4950,6249,13487,0.586,551
2022-01-26T01:30:48,42.805,6.029,CST-1368DR,4950,6251,13490,0.585,551
2022-01-26T01:33:49,42.805,6.029,CST-1368DR,4950,6250,13488,0.586,551
2022-01-26T01:36:51,42.805,6.029,CST-1368DR,4951,6251,13487,0.586,551
2022-01-26T01:39:53,42.805,6.029,CST-1368DR,4950,6251,13490,0.585,551
2022-01-26T01:42:54,42.805,6.029,CST-1368DR,4950,6250,13489,0.586,550
2022-01-26T01:45:56,42.805,6.029,CST-1368DR,4950,6251,13489,0.586,551
2022-01-26T01:48:57,42.805,6.029,CST-1368DR,4950,6241,13469,0.592,551
2022-01-26T01:51:59,42.805,6.029,CST-1368DR,4950,6245,13476,0.590,551
2022-01-26T01:55:01,42.805,6.029,CST-1368DR,4950,6251,13490,0.585,551
2022-01-26T01:58:02,42.805,6.029,CST-1368DR,4950,6252,13492,0.585,551
2022-01-26T02:01:04,42.805,6.029,CST-1368DR,4950,6251,13490,0.585,551
2022-01-26T02:04:05,42.805,6.029,CST-1368DR,4950,6252,13491,0.585,551
2022-01-26T02:07:07,42.805,6.029,CST-1368DR,4950,6250,13489,0.586,551
2022-01-26T02:10:08,42.805,6.029,CST-1368DR,4950,6250,13489,0.586,551
2022-01-26T02:13:10,42.805,6.029,CST-1368DR,4950,6251,13490,0.585,551
2022-01-26T02:16:12,42.805,6.029,CST-1368DR,4950,6251,13489,0.586,551
2022-01-26T02:19:13,42.805,6.029,CST-1368DR,4950,6250,13487,0.586,551
2022-01-26T02:22:15,42.805,6.029,CST-1368DR,4950,6250,13489,0.586,551
2022-01-26T02:25:16,42.805,6.029,CST-1368DR,4950,6250,13488,0.586,551
2022-01-26T02:28:18,42.805,6.029,CST-1368DR,4950,6250,13489,0.586,551
2022-01-26T02:31:20,42.805,6.029,CST-1368DR,4950,6249,13486,0.587,550
2022-01-26T02:34:21,42.805,6.029,CST-1368DR,4950,6249,13486,0.587,551
2022-01-26T02:37:23,42.805,6.029,CST-1368DR,4950,6249,13487,0.586,551
2022-01-26T02:40:24,42.805,6.029,CST-1368DR,4950,6250,13489,0.586,551
2022-01-26T02:43:26,42.805,6.029,CST-1368DR,4950,6251,13489,0.586,551
2022-01-26T02:46:27,42.805,6.029,CST-1368DR,4950,6249,13487,0.586,551
2022-01-26T02:49:29,42.805,6.029,CST-1368DR,4950,6251,13491,0.585,551
2022-01-26T02:52:31,42.805,6.029,CST-1368DR,4950,6250,13488,0.586,551
2022-01-26T02:55:32,42.805,6.029,CST-1368DR,4950,6250,13489,0.586,551
2022-01-26T02:58:34,42.805,6.029,CST-1368DR,4950,6249,13486,0.587,551
2022-01-26T03:01:35,42.805,6.029,CST-1368DR,4950,6251,13489,0.586,551
2022-01-26T03:04:37,42.805,6.029,CST-1368DR,4950,6251,13489,0.586,551
2022-01-26T03:07:39,42.805,6.029,CST-1368DR,4950,6250,13488,0.586,551
2022-01-26T03:10:40,42.805,6.029,CST-1368DR,4950,6249,13487,0.586,551
2022-01-26T03:13:42,42.805,6.029,CST-1368DR,4950,6250,13488,0.586,551
2022-01-26T03:16:43,42.805,6.029,CST-1368DR,4950,6247,13482,0.588,551
2022-01-26T03:19:45,42.805,6.029,CST-1368DR,4950,6251,13490,0.585,551
2022-01-26T03:22:46,42.805,6.029,CST-1368DR,4950,6250,13487,0.586,551
2022-01-26T03:25:48,42.805,6.029,CST-1368DR,4950,6250,13488,0.586,551
2022-01-26T03:28:50,42.805,6.029,CST-1368DR,4950,6251,13489,0.586,550
2022-01-26T03:31:51,42.805,6.029,CST-1368DR,4950,6249,13487,0.586,551
2022-01-26T03:34:53,42.805,6.029,CST-1368DR,4950,6250,13488,0.586,551
2022-01-26T03:37:54,42.805,6.029,CST-1368DR,4950,6249,13486,0.587,551
2022-01-26T03:40:56,42.805,6.029,CST-1368DR,4950,6249,13485,0.587,551
2022-01-26T03:43:57,42.805,6.029,CST-1368DR,4950,6250,13487,0.586,551
2022-01-26T03:46:59,42.805,6.029,CST-1368DR,4950,6249,13485,0.587,551
2022-01-26T03:50:01,42.805,6.029,CST-1368DR,4950,6248,13483,0.587,551
2022-01-26T03:53:02,42.805,6.029,CST-1368DR,4950,6250,13487,0.586,551
2022-01-26T03:56:04,42.805,6.029,CST-1368DR,4950,6249,13487,0.586,551
2022-01-26T03:59:05,42.805,6.029,CST-1368DR,4950,6249,13486,0.587,551
2022-01-26T04:02:07,42.805,6.029,CST-1368DR,4950,6250,13487,0.586,551
2022-01-26T04:05:09,42.805,6.029,CST-1368DR,4950,6249,13486,0.587,551
2022-01-26T04:08:10,42.805,6.029,CST-1368DR,4950,6248,13483,0.587,551
2022-01-26T04:11:12,42.805,6.029,CST-1368DR,4950,6249,13487,0.586,551
2022-01-26T04:14:13,42.805,6.029,CST-1368DR,4950,6250,13487,0.586,551
2022-01-26T04:17:15,42.805,6.029,CST-1368DR,4950,6249,13485,0.587,551
2022-01-26T04:20:16,42.805,6.029,CST-1368DR,4950,6249,13486,0.587,551
2022-01-26T04:23:18,42.805,6.029,CST-1368DR,4950,6249,13486,0.587,551
2022-01-26T04:26:20,42.805,6.029,CST-1368DR,4950,6248,13484,0.587,551
2022-01-26T04:29:21,42.805,6.029,CST-1368DR,4950,6249,13486,0.587,551
2022-01-26T04:32:23,42.805,6.029,CST-1368DR,4950,6249,13486,0.587,551
2022-01-26T04:35:24,42.805,6.029,CST-1368DR,4950,6248,13484,0.587,551
2022-01-26T04:38:26,42.805,6.029,CST-1368DR,4950,6248,13484,0.587,551
2022-01-26T04:41:28,42.805,6.029,CST-1368DR,4950,6249,13486,0.587,551
2022-01-26T04:44:29,42.805,6.029,CST-1368DR,4950,6249,13486,0.587,551
2022-01-26T04:47:31,42.805,6.029,CST-1368DR,4950,6248,13483,0.587,551
2022-01-26T04:50:32,42.805,6.029,CST-1368DR,4950,6249,13486,0.587,551
2022-01-26T04:53:34,42.805,6.029,CST-1368DR,4950,6249,13486,0.587,551
2022-01-26T04:56:35,42.805,6.029,CST-1368DR,4950,6248,13483,0.587,551
2022-01-26T04:59:37,42.805,6.029,CST-1368DR,4950,6249,13485,0.587,551
2022-01-26T05:02:39,42.805,6.029,CST-1368DR,4950,6250,13487,0.586,551
2022-01-26T05:05:40,42.805,6.029,CST-1368DR,4950,6249,13486,0.587,551
2022-01-26T05:08:42,42.805,6.029,CST-1368DR,4950,6250,13487,0.586,551
2022-01-26T05:11:43,42.805,6.029,CST-1368DR,4950,6249,13487,0.586,551
2022-01-26T05:14:45,42.805,6.029,CST-1368DR,4950,6249,13486,0.587,551
2022-01-26T05:17:46,42.805,6.029,CST-1368DR,4950,6250,13488,0.586,551
2022-01-26T05:20:48,42.805,6.029,CST-1368DR,4950,6249,13486,0.587,551
2022-01-26T05:23:50,42.805,6.029,CST-1368DR,4950,6249,13487,0.586,551
2022-01-26T05:26:51,42.805,6.029,CST-1368DR,4950,6249,13485,0.587,551
2022-01-26T05:29:53,42.805,6.029,CST-1368DR,4950,6249,13486,0.587,551
2022-01-26T05:32:54,42.805,6.029,CST-1368DR,4950,6249,13486,0.587,551
2022-01-26T05:35:56,42.805,6.029,CST-1368DR,4950,6250,13487,0.586,551
2022-01-26T05:38:58,42.805,6.029,CST-1368DR,4950,6249,13486,0.587,551
2022-01-26T05:41:59,42.805,6.029,CST-1368DR,4950,6249,13487,0.586,551
2022-01-26T05:45:01,42.805,6.029,CST-1368DR,4950,6248,13483,0.587,551
2022-01-26T05:48:02,42.805,6.029,CST-1368DR,4950,6249,13485,0.587,551
2022-01-26T05:51:04,42.805,6.029,CST-1368DR,4950,6248,13484,0.587,551
2022-01-26T05:54:05,42.805,6.029,CST-1368DR,4950,6248,13483,0.587,551
2022-01-26T05:57:07,42.805,6.029,CST-1368DR,4950,6248,13484,0.587,551
2022-01-26T06:00:09,42.805,6.029,CST-1368DR,4950,6249,13487,0.586,551
2022-01-26T06:03:10,42.805,6.029,CST-1368DR,4950,6249,13487,0.586,551
2022-01-26T06:06:12,42.805,6.029,CST-1368DR,4950,6249,13486,0.587,550
2022-01-26T06:09:13,42.805,6.029,CST-1368DR,4950,6248,13483,0.587,551
2022-01-26T06:12:15,42.805,6.029,CST-1368DR,4950,6248,13483,0.587,551
2022-01-26T06:15:17,42.805,6.029,CST-1368DR,4950,6248,13484,0.587,551
2022-01-26T06:18:18,42.805,6.029,CST-1368DR,4950,6249,13485,0.587,551
2022-01-26T06:21:20,42.805,6.029,CST-1368DR,4950,6249,13486,0.587,551
2022-01-26T06:24:21,42.805,6.029,CST-1368DR,4950,6248,13483,0.587,551
2022-01-26T06:27:23,42.805,6.029,CST-1368DR,4950,6246,13480,0.588,551
2022-01-26T06:30:24,42.805,6.029,CST-1368DR,4950,6249,13485,0.587,551
2022-01-26T06:33:26,42.805,6.029,CST-1368DR,4950,6248,13484,0.587,551
2022-01-26T06:36:28,42.805,6.029,CST-1368DR,4950,6248,13484,0.587,551
2022-01-26T06:39:29,42.805,6.029,CST-1368DR,4950,6248,13484,0.587,551
2022-01-26T06:42:31,42.805,6.029,CST-1368DR,4950,6247,13482,0.588,551
2022-01-26T06:45:32,42.805,6.029,CST-1368DR,4950,6248,13484,0.587,551
2022-01-26T06:48:34,42.805,6.029,CST-1368DR,4950,6248,13483,0.587,551
2022-01-26T06:51:35,42.805,6.029,CST-1368DR,4950,6247,13482,0.588,551
2022-01-26T06:54:37,42.805,6.029,CST-1368DR,4950,6247,13482,0.588,551
2022-01-26T06:57:39,42.805,6.029,CST-1368DR,4950,6248,13484,0.587,551
2022-01-26T07:00:40,42.805,6.029,CST-1368DR,4950,6248,13484,0.587,551
2022-01-26T07:03:42,42.805,6.029,CST-1368DR,4950,6248,13484,0.587,551
2022-01-26T07:06:43,42.805,6.029,CST-1368DR,4950,6248,13483,0.587,551
2022-01-26T07:09:45,42.805,6.029,CST-1368DR,4950,6248,13483,0.587,551
2022-01-26T07:12:47,42.805,6.029,CST-1368DR,4950,6248,13483,0.587,551
2022-01-26T07:15:48,42.805,6.029,CST-1368DR,4950,6248,13484,0.587,551
2022-01-26T07:18:50,42.805,6.029,CST-1368DR,4950,6248,13484,0.587,551
2022-01-26T07:21:51,42.805,6.029,CST-1368DR,4950,6248,13484,0.587,551
2022-01-26T07:24:53,42.805,6.029,CST-1368DR,4950,6247,13482,0.588,551
2022-01-26T07:27:54,42.805,6.029,CST-1368DR,4950,6248,13483,0.587,551
2022-01-26T07:30:56,42.805,6.029,CST-1368DR,4950,6247,13482,0.588,551
2022-01-26T07:33:58,42.805,6.029,CST-1368DR,4950,6247,13482,0.588,551
2022-01-26T07:36:59,42.805,6.029,CST-1368DR,4950,6248,13484,0.587,551
2022-01-26T07:40:01,42.805,6.029,CST-1368DR,4950,6248,13484,0.587,551
2022-01-26T07:43:02,42.805,6.029,CST-1368DR,4950,6248,13484,0.587,551
2022-01-26T07:46:04,42.805,6.029,CST-1368DR,4950,6248,13483,0.587,551
2022-01-26T07:49:05,42.805,6.029,CST-1368DR,4950,6248,13484,0.587,551
2022-01-26T07:52:07,42.805,6.029,CST-1368DR,4950,6248,13483,0.587,551
2022-01-26T07:55:09,42.805,6.029,CST-1368DR,4950,6248,13484,0.587,551
2022-01-26T07:58:10,42.805,6.029,CST-1368DR,4950,6245,13478,0.589,551
2022-01-26T08:01:12,42.805,6.029,CST-1368DR,4950,6246,13480,0.588,551
2022-01-26T08:04:13,42.805,6.029,CST-1368DR,4950,6248,13483,0.587,551
2022-01-26T08:07:15,42.805,6.029,CST-1368DR,4950,6247,13482,0.588,551
2022-01-26T08:10:17,42.805,6.029,CST-1368DR,4950,6246,13478,0.589,551
2022-01-26T08:13:18,42.805,6.029,CST-1368DR,4950,6247,13482,0.588,551
2022-01-26T08:16:20,42.805,6.029,CST-1368DR,4950,6248,13483,0.587,551
2022-01-26T08:19:21,42.805,6.029,CST-1368DR,4950,6248,13483,0.587,551
2022-01-26T08:22:23,42.805,6.029,CST-1368DR,4950,6248,13483,0.587,551
2022-01-26T08:25:24,42.805,6.029,CST-1368DR,4950,6247,13482,0.588,551
2022-01-26T08:28:26,42.805,6.029,CST-1368DR,4950,6247,13482,0.588,551
2022-01-26T08:31:28,42.805,6.029,CST-1368DR,4950,6246,13480,0.588,551
2022-01-26T08:34:29,42.805,6.029,CST-1368DR,4950,6248,13483,0.587,551
2022-01-26T08:37:31,42.805,6.029,CST-1368DR,4950,6248,13483,0.587,551
2022-01-26T08:40:32,42.805,6.029,CST-1368DR,4950,6248,13483,0.587,551
2022-01-26T08:43:34,42.805,6.029,CST-1368DR,4950,6246,13480,0.588,551
2022-01-26T08:46:36,42.805,6.029,CST-1368DR,4950,6247,13482,0.588,551
2022-01-26T08:49:37,42.805,6.029,CST-1368DR,4950,6247,13481,0.588,551
2022-01-26T08:52:39,42.805,6.029,CST-1368DR,4950,6248,13483,0.587,551
2022-01-26T08:55:40,42.805,6.029,CST-1368DR,4950,6247,13482,0.588,551
2022-01-26T08:58:42,42.805,6.029,CST-1368DR,4950,6247,13482,0.588,551
2022-01-26T09:01:43,42.805,6.029,CST-1368DR,4950,6247,13482,0.588,551
2022-01-26T09:04:45,42.805,6.029,CST-1368DR,4950,6248,13483,0.587,551
2022-01-26T09:07:47,42.805,6.029,CST-1368DR,4950,6247,13481,0.588,551
2022-01-26T09:10:48,42.805,6.029,CST-1368DR,4950,6248,13483,0.587,551
2022-01-26T09:13:50,42.805,6.029,CST-1368DR,4950,6246,13479,0.589,551
2022-01-26T09:16:51,42.805,6.029,CST-1368DR,4950,6245,13477,0.589,551
2022-01-26T09:19:53,42.805,6.029,CST-1368DR,4950,6247,13481,0.588,551
2022-01-26T09:22:54,42.805,6.029,CST-1368DR,4950,6246,13479,0.589,551
2022-01-26T09:25:56,42.805,6.029,CST-1368DR,4950,6246,13479,0.589,551
2022-01-26T09:28:58,42.805,6.029,CST-1368DR,4950,6238,13461,0.594,551
2022-01-26T09:31:59,42.805,6.029,CST-1368DR,4950,6246,13479,0.589,551
2022-01-26T09:35:01,42.805,6.029,CST-1368DR,4950,6246,13480,0.588,551
2022-01-26T09:38:02,42.805,6.029,CST-1368DR,4950,6244,13476,0.590,551
2022-01-26T09:41:04,42.805,6.029,CST-1368DR,4950,6246,13480,0.588,551
2022-01-26T09:44:06,42.805,6.029,CST-1368DR,4950,6245,13477,0.589,551
2022-01-26T09:47:07,42.805,6.029,CST-1368DR,4950,6246,13480,0.588,551
2022-01-26T09:50:09,42.805,6.029,CST-1368DR,4950,6246,13479,0.589,551
2022-01-26T09:53:10,42.805,6.029,CST-1368DR,4950,6245,13477,0.589,551
2022-01-26T09:56:12,42.805,6.029,CST-1368DR,4950,6245,13477,0.589,551
2022-01-26T09:59:13,42.805,6.029,CST-1368DR,4950,6246,13480,0.588,551
2022-01-26T10:02:15,42.805,6.029,CST-1368DR,4950,6246,13479,0.589,551
2022-01-26T10:05:17,42.805,6.029,CST-1368DR,4950,6245,13478,0.589,551
2022-01-26T10:08:18,42.805,6.029,CST-1368DR,4950,6246,13479,0.589,551
2022-01-26T10:11:20,42.805,6.029,CST-1368DR,4950,6245,13477,0.589,551
2022-01-26T10:14:21,42.805,6.029,CST-1368DR,4950,6246,13480,0.588,551
2022-01-26T10:17:23,42.805,6.029,CST-1368DR,4950,6246,13479,0.589,551
2022-01-26T10:20:25,42.805,6.029,CST-1368DR,4950,6245,13477,0.589,551
2022-01-26T10:23:26,42.805,6.029,CST-1368DR,4950,6246,13479,0.589,551
2022-01-26T10:26:28,42.805,6.029,CST-1368DR,4950,6246,13478,0.589,551
2022-01-26T10:29:29,42.805,6.029,CST-1368DR,4950,6246,13479,0.589,551
2022-01-26T10:32:31,42.805,6.029,CST-1368DR,4950,6246,13480,0.588,551
2022-01-26T10:35:32,42.805,6.029,CST-1368DR,4950,6246,13479,0.589,551
2022-01-26T10:38:34,42.805,6.029,CST-1368DR,4950,6245,13477,0.589,551
2022-01-26T10:41:36,42.805,6.029,CST-1368DR,4950,6246,13479,0.589,551
2022-01-26T10:44:37,42.805,6.029,CST-1368DR,4950,6246,13480,0.588,551
2022-01-26T10:47:39,42.805,6.029,CST-1368DR,4950,6243,13474,0.590,551
2022-01-26T10:50:40,42.805,6.029,CST-1368DR,4950,6246,13480,0.588,551
2022-01-26T10:53:42,42.805,6.029,CST-1368DR,4950,6246,13480,0.588,551
2022-01-26T10:56:43,42.805,6.029,CST-1368DR,4950,6246,13479,0.589,551
2022-01-26T10:59:45,42.805,6.029,CST-1368DR,4950,6246,13480,0.588,551
2022-01-26T11:02:47,42.805,6.029,CST-1368DR,4950,6246,13479,0.589,551
2022-01-26T11:05:48,42.805,6.029,CST-1368DR,4950,6246,13478,0.589,551
2022-01-26T11:08:50,42.805,6.029,CST-1368DR,4950,6245,13478,0.589,550
2022-01-26T11:11:51,42.805,6.029,CST-1368DR,4950,6246,13479,0.589,551
2022-01-26T11:14:53,42.805,6.029,CST-1368DR,4950,6246,13479,0.589,551
2022-01-26T11:17:55,42.805,6.029,CST-1368DR,4950,6246,13479,0.589,551
2022-01-26T11:20:56,42.805,6.029,CST-1368DR,4950,6245,13477,0.589,551
2022-01-26T11:23:58,42.805,6.029,CST-1368DR,4950,6245,13477,0.589,551
2022-01-26T11:26:59,42.805,6.029,CST-1368DR,4950,6245,13477,0.589,551
2022-01-26T11:30:01,42.805,6.029,CST-1368DR,4950,6245,13478,0.589,551
2022-01-26T11:33:02,42.805,6.029,CST-1368DR,4950,6245,13477,0.589,551
2022-01-26T11:36:04,42.805,6.029,CST-1368DR,4950,6245,13477,0.589,551
2022-01-26T11:39:06,42.805,6.029,CST-1368DR,4950,6245,13478,0.589,551
2022-01-26T11:42:07,42.805,6.029,CST-1368DR,4950,6244,13475,0.590,550
2022-01-26T11:45:09,42.805,6.029,CST-1368DR,4950,6245,13478,0.589,551
2022-01-26T11:48:10,42.805,6.029,CST-1368DR,4950,6244,13475,0.590,551
2022-01-26T11:51:12,42.805,6.029,CST-1368DR,4950,6237,13460,0.594,551
2022-01-26T11:54:14,42.805,6.029,CST-1368DR,4950,6243,13474,0.590,551
2022-01-26T11:57:15,42.805,6.029,CST-1368DR,4950,6245,13476,0.590,551
2022-01-26T12:00:17,42.805,6.029,CST-1368DR,4950,6244,13474,0.590,551
2022-01-26T12:03:18,42.805,6.029,CST-1368DR,4950,6244,13476,0.590,551
2022-01-26T12:06:20,42.805,6.029,CST-1368DR,4949,6239,13468,0.592,551
2022-01-26T12:09:21,42.805,6.029,CST-1368DR,4949,6243,13475,0.590,551
2022-01-26T12:12:23,42.805,6.029,CST-1368DR,4950,6241,13468,0.592,551
2022-01-26T12:15:25,42.805,6.029,CST-1368DR,4950,6246,13478,0.589,551
2022-01-26T12:18:26,42.805,6.029,CST-1368DR,4950,6244,13475,0.590,551
2022-01-26T12:21:28,42.805,6.029,CST-1368DR,4950,6245,13477,0.589,550
2022-01-26T12:24:29,42.805,6.029,CST-1368DR,4950,6244,13475,0.590,551
2022-01-26T12:27:31,42.805,6.029,CST-1368DR,4950,6245,13476,0.590,551
2022-01-26T12:30:32,42.805,6.029,CST-1368DR,4950,6244,13475,0.590,551
2022-01-26T12:33:34,42.805,6.029,CST-1368DR,4950,6245,13476,0.590,551
2022-01-26T12:36:36,42.805,6.029,CST-1368DR,4949,6244,13478,0.589,551
2022-01-26T12:39:37,42.805,6.029,CST-1368DR,4950,6245,13477,0.589,551
2022-01-26T12:42:39,42.805,6.029,CST-1368DR,4949,6245,13479,0.589,551
2022-01-26T12:45:40,42.805,6.029,CST-1368DR,4950,6245,13478,0.589,551
2022-01-26T12:48:42,42.805,6.029,CST-1368DR,4950,6244,13476,0.590,551
2022-01-26T12:51:44,42.805,6.029,CST-1368DR,4950,6243,13473,0.590,551
2022-01-26T12:54:45,42.805,6.029,CST-1368DR,4950,6243,13474,0.590,551
2022-01-26T12:57:47,42.805,6.029,CST-1368DR,4950,6244,13475,0.590,551
2022-01-26T13:00:48,42.805,6.029,CST-1368DR,4950,6244,13475,0.590,551
2022-01-26T13:03:50,42.805,6.029,CST-1368DR,4949,6244,13478,0.589,551
2022-01-26T13:06:51,42.805,6.029,CST-1368DR,4949,6245,13480,0.588,551
2022-01-26T13:09:53,42.805,6.029,CST-1368DR,4950,6245,13476,0.590,551
2022-01-26T13:12:55,42.805,6.029,CST-1368DR,4950,6245,13477,0.589,551
2022-01-26T13:15:56,42.805,6.029,CST-1368DR,4949,6246,13481,0.588,551
2022-01-26T13:18:58,42.805,6.029,CST-1368DR,4949,6245,13479,0.589,551
2022-01-26T13:21:59,42.805,6.029,CST-1368DR,4949,6244,13478,0.589,551
2022-01-26T13:25:01,42.805,6.029,CST-1368DR,4950,6245,13478,0.589,551
2022-01-26T13:28:03,42.805,6.029,CST-1368DR,4949,6241,13472,0.591,551
2022-01-26T13:31:04,42.805,6.029,CST-1368DR,4949,6245,13479,0.589,551
2022-01-26T13:34:06,42.805,6.029,CST-1368DR,4950,6244,13476,0.590,551
2022-01-26T13:37:07,42.805,6.029,CST-1368DR,4949,6245,13481,0.588,551
2022-01-26T13:40:09,42.805,6.029,CST-1368DR,4950,6245,13477,0.589,551
2022-01-26T13:43:10,42.805,6.029,CST-1368DR,4949,6244,13477,0.589,551
2022-01-26T13:46:12,42.805,6.029,CST-1368DR,4949,6242,13474,0.590,551
2022-01-26T13:49:14,42.805,6.029,CST-1368DR,4950,6246,13478,0.589,551
2022-01-26T13:52:15,42.805,6.029,CST-1368DR,4950,6245,13477,0.589,551
2022-01-26T13:55:17,42.805,6.029,CST-1368DR,4949,6245,13481,0.588,551
2022-01-26T13:58:18,42.805,6.029,CST-1368DR,4950,6246,13478,0.589,551
2022-01-26T14:01:20,42.805,6.029,CST-1368DR,4950,6246,13478,0.589,551
2022-01-26T14:04:22,42.805,6.029,CST-1368DR,4950,6245,13478,0.589,551
2022-01-26T14:07:23,42.805,6.029,CST-1368DR,4949,6246,13482,0.588,551
2022-01-26T14:10:25,42.805,6.029,CST-1368DR,4949,6246,13481,0.588,551
2022-01-26T14:13:26,42.805,6.029,CST-1368DR,4950,6245,13477,0.589,551
2022-01-26T14:16:28,42.805,6.029,CST-1368DR,4949,6245,13481,0.588,551
2022-01-26T14:19:29,42.805,6.029,CST-1368DR,4949,6245,13480,0.588,551
2022-01-26T14:22:31,42.805,6.029,CST-1368DR,4949,6245,13481,0.588,551
2022-01-26T14:25:33,42.805,6.029,CST-1368DR,4949,6245,13481,0.588,551
2022-01-26T14:28:34,42.805,6.029,CST-1368DR,4949,6246,13481,0.588,551
2022-01-26T14:31:36,42.805,6.029,CST-1368DR,4949,6244,13477,0.589,551
2022-01-26T14:34:37,42.805,6.029,CST-1368DR,4949,6245,13480,0.588,551
2022-01-26T14:37:39,42.805,6.029,CST-1368DR,4949,6245,13480,0.588,551
2022-01-26T14:40:40,42.805,6.029,CST-1368DR,4949,6244,13477,0.589,551
2022-01-26T14:43:42,42.805,6.029,CST-1368DR,4950,6246,13479,0.589,551
2022-01-26T14:46:44,42.805,6.029,CST-1368DR,4949,6246,13481,0.588,551
2022-01-26T14:49:45,42.805,6.029,CST-1368DR,4949,6246,13482,0.588,551
2022-01-26T14:52:47,42.805,6.029,CST-1368DR,4949,6244,13478,0.589,551
2022-01-26T14:55:48,42.805,6.029,CST-1368DR,4949,6246,13482,0.588,551
2022-01-26T14:58:50,42.805,6.029,CST-1368DR,4949,6246,13482,0.588,551
2022-01-26T15:01:52,42.805,6.029,CST-1368DR,4949,6246,13481,0.588,551
2022-01-26T15:04:53,42.805,6.029,CST-1368DR,4949,6246,13481,0.588,551
2022-01-26T15:07:55,42.805,6.029,CST-1368DR,4949,6245,13479,0.589,551
2022-01-26T15:10:56,42.805,6.029,CST-1368DR,4949,6245,13481,0.588,551
2022-01-26T15:13:58,42.805,6.029,CST-1368DR,4949,6240,13470,0.591,551
2022-01-26T15:16:59,42.805,6.029,CST-1368DR,4949,6246,13482,0.588,551
2022-01-26T15:20:01,42.805,6.029,CST-1368DR,4949,6246,13482,0.588,551
2022-01-26T15:23:03,42.805,6.029,CST-1368DR,4949,6246,13482,0.588,551
2022-01-26T15:26:04,42.805,6.029,CST-1368DR,4949,6244,13477,0.589,551
2022-01-26T15:29:06,42.805,6.029,CST-1368DR,4949,6246,13483,0.587,551
2022-01-26T15:32:07,42.805,6.029,CST-1368DR,4949,6245,13481,0.588,551
2022-01-26T15:35:09,42.805,6.029,CST-1368DR,4949,6245,13481,0.588,551
2022-01-26T15:38:10,42.805,6.029,CST-1368DR,4949,6244,13478,0.589,551
2022-01-26T15:41:12,42.805,6.029,CST-1368DR,4949,6245,13480,0.588,551
2022-01-26T15:44:14,42.805,6.029,CST-1368DR,4949,6245,13481,0.588,551
2022-01-26T15:47:15,42.805,6.029,CST-1368DR,4949,6245,13479,0.589,551
2022-01-26T15:50:17,42.805,6.029,CST-1368DR,4949,6243,13476,0.590,551
2022-01-26T15:53:18,42.805,6.029,CST-1368DR,4949,6244,13478,0.589,551
2022-01-26T15:56:20,42.805,6.029,CST-1368DR,4949,6237,13463,0.593,551
2022-01-26T15:59:22,42.805,6.029,CST-1368DR,4949,6245,13480,0.588,551
2022-01-26T16:02:23,42.805,6.029,CST-1368DR,4949,6245,13481,0.588,551
2022-01-26T16:05:25,42.805,6.029,CST-1368DR,4949,6245,13480,0.588,551
2022-01-26T16:08:26,42.805,6.029,CST-1368DR,4949,6245,13481,0.588,551
2022-01-26T16:11:28,42.805,6.029,CST-1368DR,4949,6244,13478,0.589,551
2022-01-26T16:14:29,42.805,6.029,CST-1368DR,4949,6246,13483,0.587,551
2022-01-26T16:17:31,42.805,6.029,CST-1368DR,4949,6245,13480,0.588,551
2022-01-26T16:20:33,42.805,6.029,CST-1368DR,4949,6246,13481,0.588,551
2022-01-26T16:23:34,42.805,6.029,CST-1368DR,4949,6246,13482,0.588,551
2022-01-26T16:26:36,42.805,6.029,CST-1368DR,4949,6246,13482,0.588,551
2022-01-26T16:29:37,42.805,6.029,CST-1368DR,4949,6246,13482,0.588,551
2022-01-26T16:32:39,42.805,6.029,CST-1368DR,4949,6246,13481,0.588,551
2022-01-26T16:35:41,42.805,6.029,CST-1368DR,4949,6245,13479,0.589,551
2022-01-26T16:38:42,42.805,6.029,CST-1368DR,4949,6246,13481,0.588,551
2022-01-26T16:41:44,42.805,6.029,CST-1368DR,4949,6245,13480,0.588,551
2022-01-26T16:44:45,42.805,6.029,CST-1368DR,4949,6245,13480,0.588,551
2022-01-26T16:47:47,42.805,6.029,CST-1368DR,4949,6245,13479,0.589,551
2022-01-26T16:50:48,42.805,6.029,CST-1368DR,4949,6245,13480,0.588,551